Time,TemperatureF,DewpointF,PressureIn,WindDirection,WindDirectionDegrees,WindSpeedMPH,WindSpeedGustMPH,Humidity,HourlyPrecipIn,Conditions,Clouds,dailyrainin,SoftwareType,DateUTC
2013-01-29 00:00:00,32.0,29.4,30.10,East,90,0.0,1.0,90,0.00,CLR,SKC,0.00,WeatherDisplay:10.37,2013-01-29 05:00:00,
2013-01-29 00:02:00,32.0,29.4,30.10,East,90,0.0,0.0,90,0.00,CLR,SKC,0.00,WeatherDisplay:10.37,2013-01-29 05:02:00,
2013-01-29 00:03:00,32.0,29.4,30.10,East,90,0.3,2.0,90,0.00,CLR,SKC,0.00,WeatherDisplay:10.37,2013-01-29 05:03:00,
2013-01-29 00:08:00,33.0,30.1,30.10,East,90,0.0,1.2,89,0.00,CLR,SKC,0.00,WeatherDisplay:10.37,2013-01-29 05:08:00,
2013-01-29 00:13:00,33.0,30.1,30.10,East,90,0.0,0.0,89,0.00,CLR,SKC,0.00,WeatherDisplay:10.37,2013-01-29 05:13:00,
2013-01-29 00:18:00,33.0,30.1,30.10,East,90,0.0,1.2,89,0.00,CLR,SKC,0.00,WeatherDisplay:10.37,2013-01-29 05:18:00,
2013-01-29 00:23:00,32.0,29.1,30.09,East,90,0.2,1.2,89,0.00,CLR,SKC,0.00,WeatherDisplay:10.37,2013-01-29 05:23:00,
2013-01-29 00:28:00,33.0,29.8,30.09,East,90,0.0,0.0,88,0.00,CLR,SKC,0.00,WeatherDisplay:10.37,2013-01-29 05:28:00,
2013-01-29 00:33:00,33.0,29.8,30.09,East,90,0.0,0.0,88,0.00,CLR,SKC,0.00,WeatherDisplay:10.37,2013-01-29 05:33:00,
2013-01-29 00:38:00,33.0,29.8,30.09,East,90,0.0,0.0,88,0.00,CLR,SKC,0.00,WeatherDisplay:10.37,2013-01-29 05:38:00,
2013-01-29 00:43:00,33.0,29.8,30.10,East,90,0.0,0.0,88,0.00,CLR,SKC,0.00,WeatherDisplay:10.37,2013-01-29 05:43:00,
2013-01-29 00:48:00,33.0,29.8,30.10,East,90,0.4,1.0,88,0.00,CLR,SKC,0.00,WeatherDisplay:10.37,2013-01-29 05:48:00,
2013-01-29 00:53:00,33.0,29.8,30.09,East,90,0.0,0.0,88,0.00,CLR,SKC,0.00,WeatherDisplay:10.37,2013-01-29 05:53:00,
2013-01-29 00:58:00,33.0,29.8,30.09,East,90,0.0,0.0,88,0.00,CLR,SKC,0.00,WeatherDisplay:10.37,2013-01-29 05:58:00,
2013-01-29 01:03:00,33.0,29.8,30.10,East,90,0.0,0.0,88,0.00,CLR,SKC,0.00,WeatherDisplay:10.37,2013-01-29 06:03:00,
2013-01-29 01:08:00,33.0,29.8,30.10,East,90,0.0,0.0,88,0.00,CLR,SKC,0.00,WeatherDisplay:10.37,2013-01-29 06:08:00,
2013-01-29 01:13:00,33.0,29.8,30.10,East,90,0.0,0.0,88,0.00,CLR,SKC,0.00,WeatherDisplay:10.37,2013-01-29 06:13:00,
2013-01-29 01:18:00,33.0,29.8,30.10,East,90,0.0,0.0,88,0.00,CLR,SKC,0.00,WeatherDisplay:10.37,2013-01-29 06:18:00,
2013-01-29 01:23:00,33.0,29.8,30.10,East,90,0.0,0.0,88,0.00,CLR,SKC,0.00,WeatherDisplay:10.37,2013-01-29 06:23:00,
2013-01-29 01:28:00,33.0,29.8,30.10,East,90,0.0,0.0,88,0.00,CLR,SKC,0.00,WeatherDisplay:10.37,2013-01-29 06:28:00,
2013-01-29 01:33:00,33.0,29.8,30.10,East,90,0.6,0.0,88,0.00,CLR,SKC,0.00,WeatherDisplay:10.37,2013-01-29 06:33:00,
2013-01-29 01:38:00,33.0,29.8,30.10,East,90,0.0,0.0,88,0.00,CLR,SKC,0.00,WeatherDisplay:10.37,2013-01-29 06:38:00,
2013-01-29 01:43:00,33.0,29.6,30.10,East,90,0.0,0.0,87,0.00,CLR,SKC,0.00,WeatherDisplay:10.37,2013-01-29 06:43:00,
2013-01-29 01:48:00,33.0,29.6,30.10,East,90,0.1,1.0,87,0.00,CLR,SKC,0.00,WeatherDisplay:10.37,2013-01-29 06:48:00,
2013-01-29 01:53:00,33.0,29.6,30.10,East,90,1.4,1.4,87,0.00,CLR,SKC,0.00,WeatherDisplay:10.37,2013-01-29 06:53:00,
2013-01-29 01:58:00,33.0,29.6,30.10,East,90,0.0,0.0,87,0.00,CLR,SKC,0.00,WeatherDisplay:10.37,2013-01-29 06:58:00,
2013-01-29 02:03:00,33.0,29.6,30.11,East,90,0.0,0.0,87,0.00,CLR,SKC,0.00,WeatherDisplay:10.37,2013-01-29 07:03:00,
2013-01-29 02:08:00,33.0,29.6,30.11,East,90,0.0,0.0,87,0.00,CLR,SKC,0.00,WeatherDisplay:10.37,2013-01-29 07:08:00,
2013-01-29 02:13:00,33.0,29.6,30.11,East,90,0.0,0.0,87,0.00,CLR,SKC,0.00,WeatherDisplay:10.37,2013-01-29 07:13:00,
2013-01-29 02:18:00,32.0,28.8,30.11,East,90,0.0,0.0,88,0.00,CLR,SKC,0.00,WeatherDisplay:10.37,2013-01-29 07:18:00,
2013-01-29 02:23:00,32.0,28.8,30.10,East,90,0.0,0.0,88,0.00,CLR,SKC,0.00,WeatherDisplay:10.37,2013-01-29 07:23:00,
2013-01-29 02:28:00,32.0,29.1,30.10,East,90,0.0,0.0,89,0.00,CLR,SKC,0.00,WeatherDisplay:10.37,2013-01-29 07:28:00,
2013-01-29 02:33:00,32.0,28.8,30.11,East,90,0.0,0.0,88,0.00,CLR,SKC,0.00,WeatherDisplay:10.37,2013-01-29 07:33:00,
2013-01-29 02:38:00,32.0,29.1,30.11,East,90,0.0,0.0,89,0.00,CLR,SKC,0.00,WeatherDisplay:10.37,2013-01-29 07:38:00,
2013-01-29 02:43:00,32.0,29.1,30.11,East,90,0.0,0.0,89,0.00,CLR,SKC,0.00,WeatherDisplay:10.37,2013-01-29 07:43:00,
2013-01-29 02:48:00,32.0,29.1,30.11,East,90,0.0,0.0,89,0.00,CLR,SKC,0.00,WeatherDisplay:10.37,2013-01-29 07:48:00,
2013-01-29 02:53:00,32.0,29.1,30.10,East,90,0.0,0.0,89,0.00,CLR,SKC,0.00,WeatherDisplay:10.37,2013-01-29 07:53:00,
2013-01-29 02:58:00,32.0,29.1,30.10,East,90,0.0,0.0,89,0.00,CLR,SKC,0.00,WeatherDisplay:10.37,2013-01-29 07:58:00,
2013-01-29 03:03:00,32.0,29.1,30.10,East,90,0.0,0.0,89,0.00,CLR,SKC,0.00,WeatherDisplay:10.37,2013-01-29 08:03:00,
2013-01-29 03:08:00,32.0,29.1,30.10,East,90,0.0,0.0,89,0.00,CLR,SKC,0.00,WeatherDisplay:10.37,2013-01-29 08:08:00,
2013-01-29 03:13:00,32.0,29.4,30.11,East,90,0.0,0.0,90,0.00,CLR,SKC,0.00,WeatherDisplay:10.37,2013-01-29 08:13:00,
2013-01-29 03:18:00,32.0,29.4,30.11,East,90,0.0,0.0,90,0.00,CLR,SKC,0.00,WeatherDisplay:10.37,2013-01-29 08:18:00,
2013-01-29 03:23:00,32.0,29.4,30.11,East,90,0.0,0.0,90,0.00,CLR,SKC,0.00,WeatherDisplay:10.37,2013-01-29 08:23:00,
2013-01-29 03:28:00,32.0,29.4,30.11,East,90,0.0,0.0,90,0.00,CLR,SKC,0.00,WeatherDisplay:10.37,2013-01-29 08:28:00,
2013-01-29 03:33:00,32.0,29.1,30.11,East,90,0.0,0.0,89,0.00,CLR,SKC,0.00,WeatherDisplay:10.37,2013-01-29 08:33:00,
2013-01-29 03:38:00,32.0,29.4,30.11,East,90,0.0,0.0,90,0.00,CLR,SKC,0.00,WeatherDisplay:10.37,2013-01-29 08:38:00,
2013-01-29 03:43:00,31.0,28.4,30.11,East,90,0.0,0.0,90,0.00,CLR,SKC,0.00,WeatherDisplay:10.37,2013-01-29 08:43:00,
2013-01-29 03:48:00,32.0,29.4,30.11,East,90,0.0,0.0,90,0.00,CLR,SKC,0.00,WeatherDisplay:10.37,2013-01-29 08:48:00,
2013-01-29 03:53:00,31.0,28.4,30.12,East,90,0.0,0.0,90,0.00,CLR,SKC,0.00,WeatherDisplay:10.37,2013-01-29 08:53:00,
2013-01-29 03:58:00,31.0,28.4,30.12,East,90,0.0,0.0,90,0.00,CLR,SKC,0.00,WeatherDisplay:10.37,2013-01-29 08:58:00,
2013-01-29 04:03:00,31.0,28.4,30.12,East,90,0.0,0.0,90,0.00,CLR,SKC,0.00,WeatherDisplay:10.37,2013-01-29 09:03:00,
2013-01-29 04:08:00,32.0,29.4,30.12,East,90,0.0,0.0,90,0.00,CLR,SKC,0.00,WeatherDisplay:10.37,2013-01-29 09:08:00,
2013-01-29 04:13:00,32.0,29.4,30.12,East,90,0.0,0.0,90,0.00,CLR,SKC,0.00,WeatherDisplay:10.37,2013-01-29 09:13:00,
2013-01-29 04:18:00,31.0,28.4,30.12,East,90,0.0,0.0,90,0.00,CLR,SKC,0.00,WeatherDisplay:10.37,2013-01-29 09:18:00,
2013-01-29 04:23:00,31.0,28.4,30.12,East,90,0.0,0.0,90,0.00,CLR,SKC,0.00,WeatherDisplay:10.37,2013-01-29 09:23:00,
2013-01-29 04:28:00,32.0,29.4,30.12,East,90,0.0,0.0,90,0.00,CLR,SKC,0.00,WeatherDisplay:10.37,2013-01-29 09:28:00,
2013-01-29 04:33:00,31.0,28.4,30.12,East,90,0.0,0.0,90,0.00,CLR,SKC,0.00,WeatherDisplay:10.37,2013-01-29 09:33:00,
2013-01-29 04:38:00,31.0,28.4,30.12,East,90,0.0,0.0,90,0.00,CLR,SKC,0.00,WeatherDisplay:10.37,2013-01-29 09:38:00,
2013-01-29 04:43:00,31.0,28.4,30.12,East,90,0.0,0.0,90,0.00,CLR,SKC,0.00,WeatherDisplay:10.37,2013-01-29 09:43:00,
2013-01-29 04:48:00,32.0,29.4,30.12,East,90,0.0,0.0,90,0.00,CLR,SKC,0.00,WeatherDisplay:10.37,2013-01-29 09:48:00,
2013-01-29 04:53:00,32.0,29.4,30.12,East,90,0.0,0.0,90,0.00,CLR,SKC,0.00,WeatherDisplay:10.37,2013-01-29 09:53:00,
2013-01-29 04:58:00,32.0,29.4,30.12,East,90,0.0,0.0,90,0.00,CLR,SKC,0.00,WeatherDisplay:10.37,2013-01-29 09:58:00,
2013-01-29 05:03:00,31.0,28.4,30.12,East,90,0.0,0.0,90,0.00,CLR,SKC,0.00,WeatherDisplay:10.37,2013-01-29 10:03:00,
2013-01-29 05:08:00,32.0,29.4,30.12,NNE,22,0.0,0.0,90,0.00,CLR,SKC,0.00,WeatherDisplay:10.37,2013-01-29 10:08:00,
2013-01-29 05:13:00,31.0,28.4,30.14,NW,315,0.0,0.0,90,0.00,CLR,SKC,0.00,WeatherDisplay:10.37,2013-01-29 10:13:00,
2013-01-29 05:18:00,32.0,29.4,30.14,NW,315,0.0,0.0,90,0.00,CLR,SKC,0.00,WeatherDisplay:10.37,2013-01-29 10:18:00,
2013-01-29 05:23:00,32.0,29.4,30.15,NW,315,0.0,0.0,90,0.00,CLR,SKC,0.00,WeatherDisplay:10.37,2013-01-29 10:23:00,
2013-01-29 05:28:00,32.0,29.4,30.15,NW,315,0.0,0.0,90,0.00,CLR,SKC,0.00,WeatherDisplay:10.37,2013-01-29 10:28:00,
2013-01-29 05:33:00,32.0,29.4,30.15,NW,315,0.0,0.0,90,0.00,CLR,SKC,0.00,WeatherDisplay:10.37,2013-01-29 10:33:00,
2013-01-29 05:38:00,32.0,29.4,30.15,NW,315,0.0,0.0,90,0.00,CLR,SKC,0.00,WeatherDisplay:10.37,2013-01-29 10:38:00,
2013-01-29 05:43:00,32.0,29.4,30.15,NW,315,0.0,0.0,90,0.00,CLR,SKC,0.00,WeatherDisplay:10.37,2013-01-29 10:43:00,
2013-01-29 05:48:00,32.0,29.4,30.15,NW,315,0.0,0.0,90,0.00,CLR,SKC,0.00,WeatherDisplay:10.37,2013-01-29 10:48:00,
2013-01-29 05:53:00,32.0,29.4,30.15,NW,315,0.0,0.0,90,0.00,CLR,SKC,0.00,WeatherDisplay:10.37,2013-01-29 10:53:00,
2013-01-29 05:58:00,32.0,29.4,30.15,NW,315,0.0,0.0,90,0.00,CLR,SKC,0.00,WeatherDisplay:10.37,2013-01-29 10:58:00,
2013-01-29 06:03:00,32.0,29.1,30.16,NW,315,0.0,0.0,89,0.00,CLR,SKC,0.00,WeatherDisplay:10.37,2013-01-29 11:03:00,
2013-01-29 06:08:00,32.0,29.1,30.16,NW,315,0.0,0.0,89,0.00,CLR,SKC,0.00,WeatherDisplay:10.37,2013-01-29 11:08:00,
2013-01-29 06:13:00,32.0,29.1,30.16,NW,315,0.0,0.0,89,0.00,CLR,SKC,0.00,WeatherDisplay:10.37,2013-01-29 11:13:00,
2013-01-29 06:18:00,32.0,29.4,30.16,NW,315,0.0,0.0,90,0.00,CLR,SKC,0.00,WeatherDisplay:10.37,2013-01-29 11:18:00,
2013-01-29 06:23:00,32.0,29.4,30.17,NW,315,0.0,0.0,90,0.00,CLR,SKC,0.00,WeatherDisplay:10.37,2013-01-29 11:23:00,
2013-01-29 06:28:00,32.0,29.4,30.17,NW,315,0.0,0.0,90,0.00,CLR,SKC,0.00,WeatherDisplay:10.37,2013-01-29 11:28:00,
2013-01-29 06:33:00,32.0,29.4,30.17,NW,315,0.0,0.0,90,0.00,CLR,SKC,0.00,WeatherDisplay:10.37,2013-01-29 11:33:00,
2013-01-29 06:38:00,32.0,29.4,30.17,NW,315,0.0,0.0,90,0.00,CLR,SKC,0.00,WeatherDisplay:10.37,2013-01-29 11:38:00,
2013-01-29 06:43:00,32.0,29.4,30.17,NW,315,0.0,0.0,90,0.00,CLR,SKC,0.00,WeatherDisplay:10.37,2013-01-29 11:43:00,
2013-01-29 06:48:00,32.0,29.4,30.17,NW,315,0.0,0.0,90,0.00,CLR,SKC,0.00,WeatherDisplay:10.37,2013-01-29 11:48:00,
2013-01-29 06:53:00,32.0,29.1,30.18,NW,315,0.0,0.0,89,0.00,CLR,SKC,0.00,WeatherDisplay:10.37,2013-01-29 11:53:00,
2013-01-29 06:58:00,32.0,29.4,30.18,NW,315,0.0,0.0,90,0.00,CLR,SKC,0.00,WeatherDisplay:10.37,2013-01-29 11:58:00,
2013-01-29 07:03:00,32.0,29.1,30.18,NW,315,0.0,0.0,89,0.00,CLR,SKC,0.00,WeatherDisplay:10.37,2013-01-29 12:03:00,
2013-01-29 07:08:00,32.0,29.4,30.18,NW,315,0.0,0.0,90,0.00,CLR,SKC,0.00,WeatherDisplay:10.37,2013-01-29 12:08:00,
2013-01-29 07:13:00,32.0,29.1,30.19,NW,315,0.0,0.0,89,0.00,CLR,SKC,0.00,WeatherDisplay:10.37,2013-01-29 12:13:00,
2013-01-29 07:18:00,32.0,29.4,30.19,NW,315,0.0,0.0,90,0.00,CLR,SKC,0.00,WeatherDisplay:10.37,2013-01-29 12:18:00,
2013-01-29 07:23:00,32.0,29.4,30.20,NW,315,0.0,0.0,90,0.00,CLR,SKC,0.00,WeatherDisplay:10.37,2013-01-29 12:23:00,
2013-01-29 07:28:00,32.0,29.4,30.20,NW,315,0.0,0.0,90,0.00,CLR,SKC,0.00,WeatherDisplay:10.37,2013-01-29 12:28:00,
2013-01-29 07:33:00,32.0,29.4,30.21,NW,315,0.0,0.0,90,0.00,CLR,SKC,0.00,WeatherDisplay:10.37,2013-01-29 12:33:00,
2013-01-29 07:38:00,32.0,29.4,30.21,NW,315,0.0,0.0,90,0.00,CLR,SKC,0.00,WeatherDisplay:10.37,2013-01-29 12:38:00,
2013-01-29 07:43:00,32.0,29.4,30.20,NW,315,0.0,0.0,90,0.00,CLR,SKC,0.00,WeatherDisplay:10.37,2013-01-29 12:43:00,
2013-01-29 07:48:00,32.0,29.1,30.20,NW,315,0.0,0.0,89,0.00,CLR,SKC,0.00,WeatherDisplay:10.37,2013-01-29 12:48:00,
2013-01-29 07:53:00,33.0,29.8,30.20,NW,315,0.0,0.0,88,0.00,CLR,SKC,0.00,WeatherDisplay:10.37,2013-01-29 12:53:00,
2013-01-29 07:58:00,33.0,30.1,30.20,NW,315,0.0,0.0,89,0.00,CLR,SKC,0.00,WeatherDisplay:10.37,2013-01-29 12:58:00,
2013-01-29 08:03:00,33.0,29.8,30.22,NW,315,0.0,0.0,88,0.00,CLR,SKC,0.00,WeatherDisplay:10.37,2013-01-29 13:03:00,
2013-01-29 08:08:00,33.0,29.8,30.22,NW,315,0.0,0.0,88,0.00,CLR,SKC,0.00,WeatherDisplay:10.37,2013-01-29 13:08:00,
2013-01-29 08:13:00,33.0,29.8,30.22,NW,315,0.0,0.0,88,0.00,CLR,SKC,0.00,WeatherDisplay:10.37,2013-01-29 13:13:00,
2013-01-29 08:18:00,33.0,29.8,30.22,NW,315,0.0,0.0,88,0.00,CLR,SKC,0.00,WeatherDisplay:10.37,2013-01-29 13:18:00,
2013-01-29 08:23:00,33.0,29.8,30.22,NW,315,0.0,0.0,88,0.00,CLR,SKC,0.00,WeatherDisplay:10.37,2013-01-29 13:23:00,
2013-01-29 08:28:00,33.0,29.8,30.22,NW,315,0.0,0.0,88,0.00,CLR,SKC,0.00,WeatherDisplay:10.37,2013-01-29 13:28:00,
2013-01-29 08:33:00,33.0,29.8,30.22,NW,315,0.0,0.0,88,0.00,CLR,SKC,0.00,WeatherDisplay:10.37,2013-01-29 13:33:00,
2013-01-29 08:38:00,33.0,29.8,30.22,NW,315,0.0,0.0,88,0.00,CLR,SKC,0.00,WeatherDisplay:10.37,2013-01-29 13:38:00,
2013-01-29 08:43:00,34.0,30.5,30.22,NW,315,0.0,0.0,87,0.00,CLR,SKC,0.00,WeatherDisplay:10.37,2013-01-29 13:43:00,
2013-01-29 08:48:00,34.0,30.8,30.22,NW,315,0.0,0.0,88,0.00,CLR,SKC,0.00,WeatherDisplay:10.37,2013-01-29 13:48:00,
2013-01-29 08:53:00,34.0,30.5,30.22,NW,315,0.0,0.0,87,0.00,CLR,SKC,0.00,WeatherDisplay:10.37,2013-01-29 13:53:00,
2013-01-29 08:58:00,34.0,30.5,30.22,NW,315,0.0,0.0,87,0.00,CLR,SKC,0.00,WeatherDisplay:10.37,2013-01-29 13:58:00,
2013-01-29 09:03:00,34.0,30.5,30.24,NW,315,0.0,0.0,87,0.00,CLR,SKC,0.00,WeatherDisplay:10.37,2013-01-29 14:03:00,
2013-01-29 09:08:00,33.0,29.6,30.24,NW,315,0.0,0.0,87,0.00,CLR,SKC,0.00,WeatherDisplay:10.37,2013-01-29 14:08:00,
2013-01-29 09:13:00,33.0,29.6,30.24,West,270,0.0,0.0,87,0.00,CLR,SKC,0.00,WeatherDisplay:10.37,2013-01-29 14:13:00,
2013-01-29 09:18:00,33.0,29.6,30.24,WSW,247,0.0,0.0,87,0.00,CLR,SKC,0.00,WeatherDisplay:10.37,2013-01-29 14:18:00,
2013-01-29 09:23:00,33.0,29.6,30.24,WSW,247,0.0,0.0,87,0.00,CLR,SKC,0.00,WeatherDisplay:10.37,2013-01-29 14:23:00,
2013-01-29 09:28:00,34.0,30.5,30.24,WSW,247,0.0,0.0,87,0.00,CLR,SKC,0.00,WeatherDisplay:10.37,2013-01-29 14:28:00,
2013-01-29 09:33:00,34.0,30.5,30.24,WSW,247,0.0,0.0,87,0.00,CLR,SKC,0.00,WeatherDisplay:10.37,2013-01-29 14:33:00,
2013-01-29 09:38:00,34.0,30.5,30.24,West,270,0.0,0.0,87,0.00,CLR,SKC,0.00,WeatherDisplay:10.37,2013-01-29 14:38:00,
2013-01-29 09:43:00,34.0,30.5,30.24,West,270,0.0,0.0,87,0.00,CLR,SKC,0.00,WeatherDisplay:10.37,2013-01-29 14:43:00,
2013-01-29 09:48:00,35.0,31.5,30.24,West,270,0.0,0.0,87,0.00,CLR,SKC,0.00,WeatherDisplay:10.37,2013-01-29 14:48:00,
2013-01-29 09:53:00,35.0,31.5,30.24,West,270,0.0,0.0,87,0.00,CLR,SKC,0.00,WeatherDisplay:10.37,2013-01-29 14:53:00,
2013-01-29 09:58:00,35.0,31.5,30.24,West,270,0.0,0.0,87,0.00,CLR,SKC,0.00,WeatherDisplay:10.37,2013-01-29 14:58:00,
2013-01-29 10:03:00,36.0,32.5,30.25,West,270,0.0,0.0,87,0.00,CLR,SKC,0.00,WeatherDisplay:10.37,2013-01-29 15:03:00,
2013-01-29 10:08:00,36.0,32.5,30.25,West,270,0.0,0.0,87,0.00,CLR,SKC,0.00,WeatherDisplay:10.37,2013-01-29 15:08:00,
2013-01-29 10:13:00,36.0,32.5,30.24,NNW,337,0.0,0.0,87,0.00,CLR,SKC,0.00,WeatherDisplay:10.37,2013-01-29 15:13:00,
2013-01-29 10:18:00,36.0,32.5,30.24,North,360,0.0,0.0,87,0.00,CLR,SKC,0.00,WeatherDisplay:10.37,2013-01-29 15:18:00,
2013-01-29 10:23:00,36.0,32.2,30.24,NNW,337,0.0,1.2,86,0.00,CLR,SKC,0.00,WeatherDisplay:10.37,2013-01-29 15:23:00,
2013-01-29 10:29:00,36.0,32.2,30.24,NNW,337,0.0,0.0,86,0.00,CLR,SKC,0.00,WeatherDisplay:10.37,2013-01-29 15:29:00,
2013-01-29 10:34:00,37.0,33.2,30.24,NNW,337,0.0,0.0,86,0.00,CLR,SKC,0.00,WeatherDisplay:10.37,2013-01-29 15:34:00,
2013-01-29 10:39:00,37.0,33.2,30.24,WNW,292,0.0,0.0,86,0.00,CLR,SKC,0.00,WeatherDisplay:10.37,2013-01-29 15:39:00,
2013-01-29 10:44:00,37.0,33.2,30.24,WNW,292,0.0,0.0,86,0.00,CLR,SKC,0.00,WeatherDisplay:10.37,2013-01-29 15:44:00,
2013-01-29 10:49:00,38.0,33.9,30.24,WNW,292,0.0,0.0,85,0.00,CLR,SKC,0.00,WeatherDisplay:10.37,2013-01-29 15:49:00,
2013-01-29 10:54:00,38.0,33.9,30.24,WNW,292,0.0,0.0,85,0.00,CLR,SKC,0.00,WeatherDisplay:10.37,2013-01-29 15:54:00,
2013-01-29 10:59:00,37.0,32.6,30.24,WSW,247,0.8,1.2,84,0.00,CLR,SKC,0.00,WeatherDisplay:10.37,2013-01-29 15:59:00,
2013-01-29 11:04:00,37.0,32.6,30.24,WSW,247,0.0,0.0,84,0.00,CLR,SKC,0.00,WeatherDisplay:10.37,2013-01-29 16:04:00,
2013-01-29 11:09:00,37.0,32.6,30.24,West,270,0.0,0.0,84,0.00,CLR,SKC,0.00,WeatherDisplay:10.37,2013-01-29 16:09:00,
2013-01-29 11:14:00,37.0,32.6,30.24,WSW,247,0.7,1.2,84,0.00,CLR,SKC,0.00,WeatherDisplay:10.37,2013-01-29 16:14:00,
2013-01-29 11:19:00,37.0,32.6,30.24,WSW,247,0.6,2.3,84,0.00,CLR,SKC,0.00,WeatherDisplay:10.37,2013-01-29 16:19:00,
2013-01-29 11:24:00,37.0,32.6,30.24,WSW,247,1.0,2.3,84,0.00,CLR,SKC,0.00,WeatherDisplay:10.37,2013-01-29 16:24:00,
2013-01-29 11:29:00,37.0,32.9,30.24,WSW,247,0.0,0.0,85,0.00,CLR,SKC,0.00,WeatherDisplay:10.37,2013-01-29 16:29:00,
2013-01-29 11:34:00,37.0,32.9,30.24,WSW,247,0.5,2.3,85,0.00,CLR,SKC,0.00,WeatherDisplay:10.37,2013-01-29 16:34:00,
2013-01-29 11:40:00,37.0,32.6,30.24,WNW,292,0.2,3.5,84,0.00,CLR,SKC,0.00,WeatherDisplay:10.37,2013-01-29 16:40:00,
2013-01-29 11:45:00,36.0,31.9,30.24,WSW,247,0.0,0.0,85,0.00,CLR,SKC,0.00,WeatherDisplay:10.37,2013-01-29 16:45:00,
2013-01-29 11:50:00,37.0,32.9,30.25,WSW,247,0.0,0.0,85,0.00,CLR,SKC,0.00,WeatherDisplay:10.37,2013-01-29 16:50:00,
2013-01-29 11:55:00,37.0,33.2,30.25,WSW,247,0.0,0.0,86,0.00,CLR,SKC,0.00,WeatherDisplay:10.37,2013-01-29 16:55:00,
2013-01-29 12:00:00,38.0,33.6,30.25,WSW,247,0.0,0.0,84,0.00,CLR,SKC,0.00,WeatherDisplay:10.37,2013-01-29 17:00:00,
2013-01-29 12:05:00,38.0,33.9,30.25,West,263,0.0,0.0,85,0.00,CLR,SKC,0.00,WeatherDisplay:10.37,2013-01-29 17:05:00,
2013-01-29 12:10:00,38.0,33.3,30.25,West,270,0.0,0.0,83,0.00,CLR,SKC,0.00,WeatherDisplay:10.37,2013-01-29 17:10:00,
2013-01-29 12:15:00,38.0,33.3,30.25,West,275,0.0,0.0,83,0.00,CLR,SKC,0.00,WeatherDisplay:10.37,2013-01-29 17:15:00,
2013-01-29 12:20:00,37.0,32.6,30.25,West,270,0.0,2.3,84,0.00,CLR,SKC,0.00,WeatherDisplay:10.37,2013-01-29 17:20:00,
2013-01-29 12:25:00,37.0,32.6,30.25,WSW,247,1.0,3.5,84,0.00,CLR,SKC,0.00,WeatherDisplay:10.37,2013-01-29 17:25:00,
2013-01-29 12:30:00,37.0,32.3,30.25,West,270,1.2,3.5,83,0.00,CLR,SKC,0.00,WeatherDisplay:10.37,2013-01-29 17:30:00,
2013-01-29 12:35:00,36.0,31.6,30.25,WSW,247,0.6,2.3,84,0.01,RA,SKC,0.01,WeatherDisplay:10.37,2013-01-29 17:35:00,
2013-01-29 12:40:00,36.0,31.6,30.25,WSW,247,0.0,1.0,84,0.00,RA,SKC,0.01,WeatherDisplay:10.37,2013-01-29 17:40:00,
2013-01-29 12:45:00,36.0,31.6,30.24,WSW,247,0.0,0.0,84,0.01,CLR,SKC,0.01,WeatherDisplay:10.37,2013-01-29 17:45:00,
2013-01-29 12:50:00,36.0,31.6,30.23,WSW,247,0.0,0.0,84,0.01,CLR,SKC,0.01,WeatherDisplay:10.37,2013-01-29 17:50:00,
2013-01-29 12:55:00,36.0,31.6,30.23,WSW,247,0.0,0.0,84,0.01,CLR,SKC,0.01,WeatherDisplay:10.37,2013-01-29 17:55:00,
2013-01-29 13:00:00,36.0,31.6,30.24,WSW,247,0.0,0.0,84,0.01,CLR,SKC,0.01,WeatherDisplay:10.37,2013-01-29 18:00:00,
2013-01-29 13:05:00,36.0,31.6,30.24,WSW,247,0.0,0.0,84,0.01,CLR,SKC,0.01,WeatherDisplay:10.37,2013-01-29 18:05:00,
2013-01-29 13:10:00,36.0,31.6,30.24,WNW,292,0.0,0.0,84,0.01,CLR,SKC,0.01,WeatherDisplay:10.37,2013-01-29 18:10:00,
2013-01-29 13:15:00,36.0,31.6,30.24,WNW,292,0.0,0.0,84,0.01,CLR,SKC,0.01,WeatherDisplay:10.37,2013-01-29 18:15:00,
2013-01-29 13:20:00,36.0,31.6,30.24,WNW,292,0.0,0.0,84,0.01,CLR,SKC,0.01,WeatherDisplay:10.37,2013-01-29 18:20:00,
2013-01-29 13:25:00,36.0,31.6,30.24,WNW,292,0.0,0.0,84,0.01,CLR,SKC,0.01,WeatherDisplay:10.37,2013-01-29 18:25:00,
2013-01-29 13:30:00,36.0,31.6,30.24,WSW,247,0.0,0.0,84,0.01,CLR,SKC,0.01,WeatherDisplay:10.37,2013-01-29 18:30:00,
2013-01-29 13:35:00,36.0,31.6,30.24,WSW,247,0.0,0.0,84,0.01,RA,SKC,0.02,WeatherDisplay:10.37,2013-01-29 18:35:00,
2013-01-29 13:40:00,36.0,31.6,30.25,WSW,247,0.0,0.0,84,0.01,RA,SKC,0.02,WeatherDisplay:10.37,2013-01-29 18:40:00,
2013-01-29 13:45:00,36.0,31.9,30.25,WSW,247,0.0,0.0,85,0.01,CLR,SKC,0.02,WeatherDisplay:10.37,2013-01-29 18:45:00,
2013-01-29 13:50:00,36.0,31.6,30.25,WSW,247,0.0,0.0,84,0.01,CLR,SKC,0.02,WeatherDisplay:10.37,2013-01-29 18:50:00,
2013-01-29 13:55:00,36.0,31.6,30.25,WSW,247,0.0,0.0,84,0.01,CLR,SKC,0.02,WeatherDisplay:10.37,2013-01-29 18:55:00,
2013-01-29 14:00:00,36.0,31.6,30.25,WSW,247,0.0,0.0,84,0.01,CLR,SKC,0.02,WeatherDisplay:10.37,2013-01-29 19:00:00,
2013-01-29 14:05:00,36.0,31.6,30.25,WSW,247,0.0,0.0,84,0.01,CLR,SKC,0.02,WeatherDisplay:10.37,2013-01-29 19:05:00,
2013-01-29 14:10:00,36.0,31.6,30.25,WSW,247,0.0,0.0,84,0.01,CLR,SKC,0.02,WeatherDisplay:10.37,2013-01-29 19:10:00,
2013-01-29 14:15:00,36.0,31.9,30.25,East,90,0.0,0.0,85,0.01,CLR,SKC,0.02,WeatherDisplay:10.37,2013-01-29 19:15:00,
2013-01-29 14:20:00,36.0,31.6,30.24,East,90,0.0,0.0,84,0.01,CLR,SKC,0.02,WeatherDisplay:10.37,2013-01-29 19:20:00,
2013-01-29 14:25:00,36.0,31.9,30.24,East,90,0.0,0.0,85,0.01,CLR,SKC,0.03,WeatherDisplay:10.37,2013-01-29 19:25:00,
2013-01-29 14:30:00,37.0,32.6,30.25,East,90,1.1,2.3,84,0.02,RA,SKC,0.03,WeatherDisplay:10.37,2013-01-29 19:30:00,
2013-01-29 14:35:00,37.0,32.6,30.25,ENE,67,0.0,0.0,84,0.01,RA,SKC,0.03,WeatherDisplay:10.37,2013-01-29 19:35:00,
2013-01-29 14:40:00,37.0,32.6,30.26,East,90,0.0,0.0,84,0.01,CLR,SKC,0.03,WeatherDisplay:10.37,2013-01-29 19:40:00,
2013-01-29 14:45:00,37.0,32.6,30.26,East,90,0.0,0.0,84,0.01,CLR,SKC,0.03,WeatherDisplay:10.37,2013-01-29 19:45:00,
2013-01-29 14:50:00,37.0,32.6,30.26,East,90,0.2,1.2,84,0.01,CLR,SKC,0.03,WeatherDisplay:10.37,2013-01-29 19:50:00,
2013-01-29 14:55:00,37.0,32.6,30.26,East,90,0.0,0.0,84,0.01,CLR,SKC,0.03,WeatherDisplay:10.37,2013-01-29 19:55:00,
2013-01-29 14:58:00,37.0,32.6,30.26,East,90,0.0,0.0,84,0.01,CLR,SKC,0.03,WeatherDisplay:10.37,2013-01-29 19:58:00,
2013-01-29 15:03:00,37.0,32.6,30.26,East,90,0.3,2.3,84,0.01,CLR,SKC,0.03,WeatherDisplay:10.37,2013-01-29 20:03:00,
2013-01-29 15:08:00,37.0,32.6,30.26,East,90,1.8,3.0,84,0.01,CLR,SKC,0.03,WeatherDisplay:10.37,2013-01-29 20:08:00,
2013-01-29 15:13:00,37.0,32.6,30.26,East,90,0.1,1.2,84,0.01,CLR,SKC,0.03,WeatherDisplay:10.37,2013-01-29 20:13:00,
2013-01-29 15:18:00,37.0,32.6,30.26,East,90,0.0,0.0,84,0.01,CLR,SKC,0.03,WeatherDisplay:10.37,2013-01-29 20:18:00,
2013-01-29 15:23:00,37.0,32.6,30.27,East,90,0.0,0.0,84,0.01,CLR,SKC,0.03,WeatherDisplay:10.37,2013-01-29 20:23:00,
2013-01-29 15:28:00,37.0,32.6,30.27,East,90,0.7,1.2,84,0.00,CLR,SKC,0.03,WeatherDisplay:10.37,2013-01-29 20:28:00,
2013-01-29 15:33:00,37.0,32.6,30.27,East,90,0.1,1.2,84,0.00,CLR,SKC,0.03,WeatherDisplay:10.37,2013-01-29 20:33:00,
2013-01-29 15:38:00,37.0,32.6,30.27,East,90,0.0,0.0,84,0.00,CLR,SKC,0.03,WeatherDisplay:10.37,2013-01-29 20:38:00,
2013-01-29 15:43:00,37.0,32.6,30.27,East,90,0.0,0.0,84,0.00,CLR,SKC,0.03,WeatherDisplay:10.37,2013-01-29 20:43:00,
2013-01-29 15:48:00,36.0,31.6,30.27,East,90,0.0,0.0,84,0.00,CLR,SKC,0.03,WeatherDisplay:10.37,2013-01-29 20:48:00,
2013-01-29 15:53:00,36.0,31.6,30.28,East,90,0.0,0.0,84,0.00,CLR,SKC,0.03,WeatherDisplay:10.37,2013-01-29 20:53:00,
2013-01-29 15:58:00,36.0,31.6,30.28,East,90,0.0,0.0,84,0.00,CLR,SKC,0.03,WeatherDisplay:10.37,2013-01-29 20:58:00,
2013-01-29 16:03:00,36.0,31.6,30.28,East,90,0.0,0.0,84,0.00,CLR,SKC,0.03,WeatherDisplay:10.37,2013-01-29 21:03:00,
2013-01-29 16:08:00,36.0,31.6,30.28,East,90,0.1,2.3,84,0.00,CLR,SKC,0.03,WeatherDisplay:10.37,2013-01-29 21:08:00,
2013-01-29 16:13:00,36.0,31.6,30.28,East,90,0.0,1.2,84,0.00,CLR,SKC,0.03,WeatherDisplay:10.37,2013-01-29 21:13:00,
2013-01-29 16:18:00,36.0,31.6,30.28,East,90,0.5,2.3,84,0.00,CLR,SKC,0.04,WeatherDisplay:10.37,2013-01-29 21:18:00,
2013-01-29 16:23:00,36.0,31.6,30.28,East,90,0.8,2.3,84,0.01,RA,SKC,0.04,WeatherDisplay:10.37,2013-01-29 21:23:00,
2013-01-29 16:28:00,36.0,31.6,30.28,East,90,1.8,3.5,84,0.01,RA,SKC,0.04,WeatherDisplay:10.37,2013-01-29 21:28:00,
2013-01-29 16:33:00,36.0,31.6,30.27,East,90,0.6,3.5,84,0.01,CLR,SKC,0.04,WeatherDisplay:10.37,2013-01-29 21:33:00,
2013-01-29 16:38:00,36.0,31.6,30.27,East,90,0.4,3.5,84,0.01,CLR,SKC,0.04,WeatherDisplay:10.37,2013-01-29 21:38:00,
2013-01-29 16:43:00,36.0,31.6,30.27,East,90,2.8,3.5,84,0.01,CLR,SKC,0.04,WeatherDisplay:10.37,2013-01-29 21:43:00,
2013-01-29 16:48:00,36.0,31.6,30.27,East,90,4.1,4.6,84,0.01,CLR,SKC,0.04,WeatherDisplay:10.37,2013-01-29 21:48:00,
2013-01-29 16:53:00,36.0,31.6,30.28,East,90,1.5,4.6,84,0.01,CLR,SKC,0.04,WeatherDisplay:10.37,2013-01-29 21:53:00,
2013-01-29 16:58:00,36.0,31.9,30.28,East,90,0.5,3.5,85,0.01,CLR,SKC,0.04,WeatherDisplay:10.37,2013-01-29 21:58:00,
2013-01-29 17:03:00,36.0,31.6,30.28,East,90,2.3,5.8,84,0.01,CLR,SKC,0.04,WeatherDisplay:10.37,2013-01-29 22:03:00,
2013-01-29 17:08:00,36.0,31.9,30.28,East,90,1.6,3.5,85,0.01,CLR,SKC,0.04,WeatherDisplay:10.37,2013-01-29 22:08:00,
2013-01-29 17:13:00,36.0,31.9,30.28,East,90,0.2,3.5,85,0.01,CLR,SKC,0.04,WeatherDisplay:10.37,2013-01-29 22:13:00,
2013-01-29 17:18:00,36.0,31.9,30.28,East,90,0.1,0.0,85,0.01,CLR,SKC,0.04,WeatherDisplay:10.37,2013-01-29 22:18:00,
2013-01-29 17:23:00,36.0,31.6,30.28,East,90,0.5,2.3,84,0.00,CLR,SKC,0.04,WeatherDisplay:10.37,2013-01-29 22:23:00,
2013-01-29 17:28:00,36.0,31.9,30.28,East,90,0.6,3.5,85,0.00,CLR,SKC,0.04,WeatherDisplay:10.37,2013-01-29 22:28:00,
2013-01-29 17:33:00,36.0,31.6,30.28,East,90,1.1,3.5,84,0.00,CLR,SKC,0.04,WeatherDisplay:10.37,2013-01-29 22:33:00,
2013-01-29 17:38:00,36.0,31.9,30.28,East,90,1.9,3.5,85,0.00,CLR,SKC,0.04,WeatherDisplay:10.37,2013-01-29 22:38:00,
2013-01-29 17:43:00,36.0,31.9,30.29,East,90,0.9,3.5,85,0.00,CLR,SKC,0.04,WeatherDisplay:10.37,2013-01-29 22:43:00,
2013-01-29 17:48:00,36.0,31.9,30.29,East,90,0.9,4.0,85,0.00,CLR,SKC,0.04,WeatherDisplay:10.37,2013-01-29 22:48:00,
2013-01-29 17:53:00,36.0,31.9,30.28,East,90,1.2,3.5,85,0.00,CLR,SKC,0.04,WeatherDisplay:10.37,2013-01-29 22:53:00,
2013-01-29 17:58:00,36.0,31.9,30.28,East,90,0.4,1.2,85,0.00,CLR,SKC,0.04,WeatherDisplay:10.37,2013-01-29 22:58:00,
2013-01-29 18:03:00,36.0,31.6,30.30,East,90,0.0,0.0,84,0.00,CLR,SKC,0.04,WeatherDisplay:10.37,2013-01-29 23:03:00,
2013-01-29 18:08:00,36.0,31.9,30.30,East,90,0.0,2.3,85,0.00,CLR,SKC,0.04,WeatherDisplay:10.37,2013-01-29 23:08:00,
2013-01-29 18:13:00,36.0,31.9,30.30,East,90,0.0,0.0,85,0.00,CLR,SKC,0.04,WeatherDisplay:10.37,2013-01-29 23:13:00,
2013-01-29 18:18:00,36.0,31.9,30.30,East,90,0.2,3.5,85,0.00,CLR,SKC,0.04,WeatherDisplay:10.37,2013-01-29 23:18:00,
2013-01-29 18:23:00,36.0,31.9,30.30,East,90,0.0,0.0,85,0.00,CLR,SKC,0.04,WeatherDisplay:10.37,2013-01-29 23:23:00,
2013-01-29 18:28:00,36.0,31.9,30.30,East,90,0.4,1.2,85,0.00,CLR,SKC,0.04,WeatherDisplay:10.37,2013-01-29 23:28:00,
2013-01-29 18:33:00,37.0,32.9,30.30,East,90,0.3,3.5,85,0.00,CLR,SKC,0.04,WeatherDisplay:10.37,2013-01-29 23:33:00,
2013-01-29 18:38:00,36.0,31.9,30.30,East,90,3.1,3.5,85,0.00,CLR,SKC,0.04,WeatherDisplay:10.37,2013-01-29 23:38:00,
2013-01-29 18:43:00,36.0,31.6,30.29,East,90,2.2,3.5,84,0.00,CLR,SKC,0.04,WeatherDisplay:10.37,2013-01-29 23:43:00,
2013-01-29 18:48:00,36.0,31.9,30.29,East,90,2.2,3.5,85,0.00,CLR,SKC,0.04,WeatherDisplay:10.37,2013-01-29 23:48:00,
2013-01-29 18:53:00,36.0,31.9,30.29,East,90,0.8,2.3,85,0.00,CLR,SKC,0.04,WeatherDisplay:10.37,2013-01-29 23:53:00,
2013-01-29 18:58:00,37.0,32.9,30.29,East,90,2.4,3.5,85,0.00,CLR,SKC,0.04,WeatherDisplay:10.37,2013-01-29 23:58:00,
2013-01-29 19:03:00,37.0,32.9,30.30,East,90,2.8,3.5,85,0.00,CLR,SKC,0.04,WeatherDisplay:10.37,2013-01-30 00:03:00,
2013-01-29 19:08:00,37.0,32.9,30.30,East,90,1.2,3.5,85,0.00,CLR,SKC,0.04,WeatherDisplay:10.37,2013-01-30 00:08:00,
2013-01-29 19:13:00,36.0,31.6,30.29,East,90,1.8,3.5,84,0.00,CLR,SKC,0.04,WeatherDisplay:10.37,2013-01-30 00:13:00,
2013-01-29 19:18:00,37.0,32.9,30.29,East,90,1.5,2.3,85,0.00,CLR,SKC,0.04,WeatherDisplay:10.37,2013-01-30 00:18:00,
2013-01-29 19:23:00,37.0,32.9,30.29,East,90,1.2,2.3,85,0.00,CLR,SKC,0.04,WeatherDisplay:10.37,2013-01-30 00:23:00,
2013-01-29 19:28:00,36.0,31.9,30.29,SW,225,0.0,1.2,85,0.00,CLR,SKC,0.04,WeatherDisplay:10.37,2013-01-30 00:28:00,
2013-01-29 19:33:00,36.0,31.6,30.31,SW,225,0.7,2.3,84,0.00,CLR,SKC,0.04,WeatherDisplay:10.37,2013-01-30 00:33:00,
2013-01-29 19:38:00,36.0,31.6,30.31,SW,225,0.0,0.0,84,0.00,CLR,SKC,0.04,WeatherDisplay:10.37,2013-01-30 00:38:00,
2013-01-29 19:43:00,36.0,31.6,30.31,SW,225,0.5,1.2,84,0.00,CLR,SKC,0.04,WeatherDisplay:10.37,2013-01-30 00:43:00,
2013-01-29 19:48:00,36.0,31.6,30.31,SW,225,1.1,3.5,84,0.00,CLR,SKC,0.04,WeatherDisplay:10.37,2013-01-30 00:48:00,
2013-01-29 19:53:00,37.0,32.6,30.32,SW,225,0.0,2.3,84,0.00,CLR,SKC,0.04,WeatherDisplay:10.37,2013-01-30 00:53:00,
2013-01-29 19:58:00,36.0,31.6,30.32,SW,225,0.0,0.0,84,0.00,CLR,SKC,0.04,WeatherDisplay:10.37,2013-01-30 00:58:00,
2013-01-29 20:03:00,36.0,31.6,30.32,SW,225,0.0,0.0,84,0.00,CLR,SKC,0.04,WeatherDisplay:10.37,2013-01-30 01:03:00,
2013-01-29 20:08:00,36.0,31.6,30.32,WSW,247,0.0,0.0,84,0.00,CLR,SKC,0.04,WeatherDisplay:10.37,2013-01-30 01:08:00,
2013-01-29 20:13:00,36.0,31.6,30.32,WSW,247,0.0,0.0,84,0.00,CLR,SKC,0.04,WeatherDisplay:10.37,2013-01-30 01:13:00,
2013-01-29 20:18:00,35.0,30.7,30.32,WSW,247,0.0,0.0,84,0.00,CLR,SKC,0.04,WeatherDisplay:10.37,2013-01-30 01:18:00,
2013-01-29 20:23:00,35.0,30.7,30.31,WSW,247,0.0,0.0,84,0.00,CLR,SKC,0.04,WeatherDisplay:10.37,2013-01-30 01:23:00,
2013-01-29 20:28:00,35.0,30.7,30.31,WSW,247,0.0,0.0,84,0.00,CLR,SKC,0.04,WeatherDisplay:10.37,2013-01-30 01:28:00,
2013-01-29 20:33:00,36.0,31.6,30.30,WSW,247,0.0,0.0,84,0.00,CLR,SKC,0.04,WeatherDisplay:10.37,2013-01-30 01:33:00,
2013-01-29 20:38:00,36.0,31.6,30.30,WSW,247,0.0,0.0,84,0.00,CLR,SKC,0.04,WeatherDisplay:10.37,2013-01-30 01:38:00,
2013-01-29 20:43:00,36.0,31.6,30.31,WSW,247,0.0,0.0,84,0.00,CLR,SKC,0.04,WeatherDisplay:10.37,2013-01-30 01:43:00,
2013-01-29 20:48:00,35.0,30.7,30.31,WSW,247,0.0,0.0,84,0.00,CLR,SKC,0.04,WeatherDisplay:10.37,2013-01-30 01:48:00,
2013-01-29 20:53:00,35.0,30.7,30.30,WSW,247,0.0,0.0,84,0.00,CLR,SKC,0.04,WeatherDisplay:10.37,2013-01-30 01:53:00,
2013-01-29 20:58:00,35.0,30.7,30.30,East,90,0.0,0.0,84,0.00,CLR,SKC,0.04,WeatherDisplay:10.37,2013-01-30 01:58:00,
2013-01-29 21:03:00,36.0,31.9,30.31,East,90,0.2,1.0,85,0.00,CLR,SKC,0.04,WeatherDisplay:10.37,2013-01-30 02:03:00,
2013-01-29 21:08:00,36.0,31.9,30.31,East,90,2.0,3.0,85,0.00,CLR,SKC,0.04,WeatherDisplay:10.37,2013-01-30 02:08:00,
2013-01-29 21:13:00,36.0,31.6,30.30,East,90,0.3,3.5,84,0.00,CLR,SKC,0.04,WeatherDisplay:10.37,2013-01-30 02:13:00,
2013-01-29 21:18:00,36.0,31.9,30.30,SW,225,0.6,3.0,85,0.00,CLR,SKC,0.04,WeatherDisplay:10.37,2013-01-30 02:18:00,
2013-01-29 21:23:00,36.0,31.6,30.30,East,90,1.2,3.0,84,0.00,CLR,SKC,0.04,WeatherDisplay:10.37,2013-01-30 02:23:00,
2013-01-29 21:28:00,36.0,31.6,30.30,East,90,1.2,2.3,84,0.00,CLR,SKC,0.04,WeatherDisplay:10.37,2013-01-30 02:28:00,
2013-01-29 21:33:00,36.0,31.6,30.29,East,90,1.0,4.6,84,0.00,CLR,SKC,0.04,WeatherDisplay:10.37,2013-01-30 02:33:00,
2013-01-29 21:38:00,36.0,31.6,30.29,ENE,67,3.3,5.8,84,0.00,CLR,SKC,0.04,WeatherDisplay:10.37,2013-01-30 02:38:00,
2013-01-29 21:43:00,36.0,31.6,30.28,East,90,1.5,3.5,84,0.00,CLR,SKC,0.04,WeatherDisplay:10.37,2013-01-30 02:43:00,
2013-01-29 21:48:00,36.0,31.6,30.28,SW,225,1.5,2.3,84,0.00,CLR,SKC,0.04,WeatherDisplay:10.37,2013-01-30 02:48:00,
2013-01-29 21:53:00,37.0,32.6,30.30,SW,225,3.3,4.0,84,0.00,CLR,SKC,0.04,WeatherDisplay:10.37,2013-01-30 02:53:00,
2013-01-29 21:58:00,37.0,32.6,30.30,East,90,0.3,3.5,84,0.00,CLR,SKC,0.04,WeatherDisplay:10.37,2013-01-30 02:58:00,
2013-01-29 22:03:00,37.0,32.6,30.29,SW,225,3.7,3.7,84,0.00,CLR,SKC,0.04,WeatherDisplay:10.37,2013-01-30 03:03:00,
2013-01-29 22:08:00,37.0,32.3,30.29,East,90,1.2,5.8,83,0.00,CLR,SKC,0.04,WeatherDisplay:10.37,2013-01-30 03:08:00,
2013-01-29 22:13:00,37.0,32.3,30.28,SW,225,0.4,2.0,83,0.00,CLR,SKC,0.04,WeatherDisplay:10.37,2013-01-30 03:13:00,
2013-01-29 22:18:00,37.0,32.3,30.28,East,90,0.5,2.3,83,0.00,CLR,SKC,0.04,WeatherDisplay:10.37,2013-01-30 03:18:00,
2013-01-29 22:23:00,37.0,32.0,30.29,East,90,0.0,0.0,82,0.00,CLR,SKC,0.04,WeatherDisplay:10.37,2013-01-30 03:23:00,
2013-01-29 22:28:00,37.0,32.0,30.29,East,90,1.0,3.5,82,0.00,CLR,SKC,0.04,WeatherDisplay:10.37,2013-01-30 03:28:00,
2013-01-29 22:33:00,37.0,32.0,30.30,East,90,1.8,3.5,82,0.00,CLR,SKC,0.04,WeatherDisplay:10.37,2013-01-30 03:33:00,
2013-01-29 22:38:00,37.0,32.0,30.30,East,90,0.8,2.3,82,0.00,CLR,SKC,0.04,WeatherDisplay:10.37,2013-01-30 03:38:00,
2013-01-29 22:43:00,37.0,32.0,30.29,East,90,1.2,2.3,82,0.00,CLR,SKC,0.04,WeatherDisplay:10.37,2013-01-30 03:43:00,
2013-01-29 22:48:00,37.0,32.0,30.29,East,90,0.0,3.5,82,0.00,CLR,SKC,0.04,WeatherDisplay:10.37,2013-01-30 03:48:00,
2013-01-29 22:53:00,37.0,32.0,30.29,East,90,0.6,3.5,82,0.00,CLR,SKC,0.04,WeatherDisplay:10.37,2013-01-30 03:53:00,
2013-01-29 22:58:00,37.0,31.7,30.29,East,90,3.4,7.0,81,0.00,CLR,SKC,0.04,WeatherDisplay:10.37,2013-01-30 03:58:00,
2013-01-29 23:03:00,37.0,31.7,30.27,East,90,4.2,5.8,81,0.00,CLR,SKC,0.04,WeatherDisplay:10.37,2013-01-30 04:03:00,
2013-01-29 23:08:00,37.0,31.7,30.27,East,90,1.5,3.5,81,0.00,CLR,SKC,0.04,WeatherDisplay:10.37,2013-01-30 04:08:00,
2013-01-29 23:13:00,37.0,31.7,30.29,East,90,3.8,5.0,81,0.00,CLR,SKC,0.04,WeatherDisplay:10.37,2013-01-30 04:13:00,
2013-01-29 23:18:00,37.0,31.7,30.29,East,90,1.9,4.6,81,0.00,CLR,SKC,0.04,WeatherDisplay:10.37,2013-01-30 04:18:00,
2013-01-29 23:23:00,37.0,31.7,30.28,East,90,1.9,5.8,81,0.00,CLR,SKC,0.04,WeatherDisplay:10.37,2013-01-30 04:23:00,
2013-01-29 23:28:00,37.0,31.7,30.28,East,90,3.5,4.6,81,0.00,CLR,SKC,0.04,WeatherDisplay:10.37,2013-01-30 04:28:00,
2013-01-29 23:33:00,37.0,31.4,30.27,East,90,3.4,6.9,80,0.00,CLR,SKC,0.04,WeatherDisplay:10.37,2013-01-30 04:33:00,
2013-01-29 23:38:00,37.0,31.4,30.27,East,90,4.4,5.8,80,0.00,CLR,SKC,0.04,WeatherDisplay:10.37,2013-01-30 04:38:00,
2013-01-29 23:43:00,37.0,31.4,30.26,East,90,4.1,5.8,80,0.00,CLR,SKC,0.04,WeatherDisplay:10.37,2013-01-30 04:43:00,
2013-01-29 23:48:00,37.0,31.4,30.26,East,90,3.8,6.9,80,0.01,RA,SKC,0.05,WeatherDisplay:10.37,2013-01-30 04:48:00,
2013-01-29 23:53:00,37.0,31.4,30.26,East,90,3.7,8.1,80,0.01,RA,SKC,0.05,WeatherDisplay:10.37,2013-01-30 04:53:00,
2013-01-29 23:58:00,38.0,32.4,30.26,East,90,2.9,8.0,80,0.01,,SKC,0.05,WeatherDisplay:10.37,2013-01-30 04:58:00,